Temp
-9 -10 -9 -8 -7 -8 -8 -7 -6 -6 -6 -6 -5 -5 -5 -5 -5 -5 -5 -5 -5 -5 -6 -6 -6 -6 -6 -6 -6 -7 -7 -7 -7 -7 -7 -7 -7 -7 -7 -7 -7 -7 -6 -6
-9 -10 -9 -9 -9 -8 -7 -8 -7 -6 -5 -7 -6 -5 -5 -5 -5 -5 -5 -5 -5 -5 -5 -6 -6 -5 -6 -6 -6 -6 -7 -7 -7 -7 -7 -7 -7 -7 -7 -7 -7 -7 -7 -7
-9 -10 -10 -9 -9 -8 -8 -8 -8 -7 -6 -6 -6 -6 -5 -6 -6 -6 -6 -6 -6 -5 -6 -5 -6 -5 -6 -6 -6 -6 -7 -7 -6 -7 -7 -6 -7 -7 -7 -7 -7 -7 -7 -7
-10 -10 -10 -9 -9 -9 -9 -8 -7 -7 -5 -5 -7 -6 -5 -6 -6 -6 -6 -5 -5 -5 -6 -6 -5 -5 -6 -6 -7 -7 -6 -6 -6 -6 -7 -6 -6 -6 -6 -6 -6 -6 -6 -6
-11 -11 -11 -10 -9 -9 -9 -8 -8 -8 -8 -7 -7 -6 -6 -7 -6 -6 -6 -6 -6 -6 -6 -6 -6 -7 -6 -5 -6 -6 -6 -6 -6 -6 -6 -6 -6 -6 -6 -6 -6 -6 -6 -6
-12 -11 -12 -11 -10 -9 -9 -9 -9 -7 -8 -7 -7 -7 -7 -7 -6 -6 -7 -6 -6 -5 -6 -6 -5 -5 -5 -6 -5 -6 -6 -7 -6 -6 -6 -6 -6 -6 -6 -6 -6 -6 -6 -6
-11 -12 -12 -10 -10 -10 -9 -9 -8 -9 -8 -8 -7 -7 -7 -6 -7 -7 -7 -6 -7 -6 -6 -6 -6 -5 -6 -5 -6 -6 -6 -6 -6 -6 -6 -6 -6 -6 -6 -6 -6 -6 -6 -6
-12 -11 -11 -10 -10 -11 -9 -9 -9 -8 -8 -8 -8 -7 -7 -6 -6 -8 -7 -6 -6 -6 -6 -6 -5 -6 -5 -5 -5 -6 -6 -6 -6 -6 -6 -6 -6 -6 -6 -6 -6 -6 -6 -6
-12 -11 -11 -10 -9 -10 -11 -9 -8 -9 -8 -8 -8 -7 -7 -6 -5 -5 -6 -6 -6 -6 -5 -6 -5 -5 -5 -6 -6 -6 -5 -6 -6 -6 -7 -6 -6 -6 -6 -6 -6 -6 -6 -6
-12 -11 -11 -10 -10 -10 -10 -10 -9 -8 -9 -8 -8 -8 -7 -8 -4 -8 -7 -7 -6 -6 -5 -5 -5 -5 -6 -5 -5 -7 -6 -6 -6 -6 -6 -6 -6 -6 -6 -6 -6 -6 -6 -6
-11 -12 -12 -12 -10 -10 -10 -10 -10 -10 -9 -9 -8 -8 -8 -7 -8 -8 -9 -8 -7 -6 -5 -5 -5 -5 -5 -6 -6 -6 -5 -6 -6 -6 -6 -6 -6 -6 -6 -6 -7 -6 -6 -6
-11 -12 -12 -11 -12 -10 -11 -11 -10 -10 -9 -9 -9 -9 -9 -8 -7 -7 -9 -9 -8 -6 -6 -5 -5 -5 -5 -5 -5 -8 -6 -7 -6 -6 -6 -6 -6 -6 -6 -6 -6 -7 -7 -6
-12 -11 -12 -11 -11 -12 -11 -11 -11 -10 -10 -9 -9 -9 -8 -9 -8 -9 -10 -7 -7 -7 -7 -6 -5 -5 -5 -5 -5 -5 -6 -6 -6 -6 -6 -6 -6 -7 -6 -6 -6 -7 -7 -7
-12 -12 -12 -11 -11 -12 -12 -12 -11 -10 -10 -10 -9 -9 -10 -10 -9 -8 -8 -7 -7 -7 -7 -7 -6 -6 -6 -5 -4 -5 -6 -8 -6 -6 -6 -6 -6 -6 -7 -7 -7 -7 -6 -7
-12 -12 -13 -12 -12 -11 -11 -12 -11 -11 -10 -10 -10 -10 -10 -8 -8 -7 -6 -7 -8 -8 -7 -7 -6 -6 -6 -5 -6 -5 -5 -5 -6 -5 -6 -7 -7 -6 -6 -6 -6 -6 -6 -6
-13 -12 -12 -13 -12 -12 -13 -12 -12 -11 -10 -10 -11 -11 -9 -8 -7 -6 -4 -11 -9 -8 -8 -7 -7 -7 -7 -7 -7 -5 -6 -6 -7 -8 -7 -7 -7 -7 -6 -6 -6 -6 -6 -6
-14 -13 -12 -13 -13 -13 -13 -12 -11 -12 -12 -12 -12 -10 -9 -8 -7 -9 -10 -10 -9 -9 -9 -8 -7 -7 -7 -8 -8 -7 -6 -7 -8 -8 -8 -7 -7 -7 -7 -6 -6 -6 -7 -6
-14 -14 -13 -13 -13 -13 -13 -13 -12 -13 -12 -12 -11 -9 -7 -7 -7 -10 -10 -9 -9 -8 -8 -8 -8 -8 -8 -8 -8 -8 -8 -8 -8 -8 -7 -7 -7 -7 -7 -6 -6 -6 -6 -6
-15 -15 -15 -14 -14 -13 -13 -13 -12 -12 -13 -12 -11 -11 -9 -9 -8 -9 -10 -11 -10 -10 -9 -8 -8 -8 -9 -8 -9 -8 -8 -8 -8 -8 -8 -7 -7 -7 -6 -6 -6 -6 -6 -6
-15 -15 -14 -14 -14 -13 -13 -13 -13 -13 -13 -13 -11 -12 -11 -10 -9 -11 -11 -11 -11 -10 -10 -9 -9 -9 -9 -9 -9 -9 -9 -8 -8 -8 -8 -7 -7 -7 -6 -7 -6 -7 -6 -7
-15 -15 -15 -15 -14 -15 -13 -14 -13 -14 -14 -13 -12 -12 -11 -11 -13 -12 -12 -11 -10 -9 -10 -10 -10 -9 -10 -10 -10 -9 -9 -9 -8 -8 -8 -7 -7 -7 -6 -7 -8 -7 -7 -7
-15 -15 -16 -15 -16 -15 -15 -15 -15 -14 -14 -13 -13 -13 -12 -12 -13 -12 -13 -11 -11 -11 -11 -11 -11 -10 -10 -9 -10 -10 -10 -10 -9 -9 -8 -8 -8 -8 -7 -7 -8 -8 -7 -7
-15 -16 -16 -16 -15 -15 -15 -14 -14 -14 -14 -14 -14 -14 -13 -13 -13 -13 -13 -12 -12 -12 -12 -12 -11 -11 -10 -10 -10 -10 -10 -10 -10 -10 -9 -9 -9 -9 -8 -8 -8 -8 -7 -8
-17 -17 -18 -17 -17 -15 -15 -14 -14 -15 -15 -15 -14 -14 -13 -13 -13 -13 -13 -13 -13 -13 -12 -12 -12 -12 -12 -11 -11 -11 -11 -10 -10 -10 -10 -10 -10 -9 -9 -10 -9 -9 -8 -9
-16 -17 -17 -17 -17 -17 -16 -15 -14 -15 -15 -14 -14 -14 -14 -13 -13 -13 -14 -13 -14 -14 -13 -13 -12 -12 -12 -12 -12 -12 -11 -11 -11 -11 -11 -10 -10 -10 -10 -10 -10 -10 -10 -9
-16 -16 -17 -17 -17 -17 -16 -16 -16 -16 -15 -16 -15 -14 -14 -14 -14 -14 -14 -14 -14 -14 -14 -14 -13 -13 -13 -12 -12 -12 -12 -12 -12 -11 -11 -11 -10 -11 -10 -11 -11 -11 -10 -10
Height
5855 5859 5865 5873 5878 5884 5886 5888 5888 5890 5888 5892 5894 5894 5895 5894 5899 5902 5904 5905 5907 5909 5913 5913 5916 5916 5917 5919 5920 5922 5924 5925 5926 5927 5929 5930 5931 5932 5933 5936 5937 5935 5942 5944
5850 5854 5865 5872 5877 5880 5883 5884 5884 5882 5854 5888 5893 5894 5896 5896 5898 5900 5903 5906 5906 5908 5910 5912 5916 5917 5919 5920 5921 5924 5925 5926 5928 5929 5931 5932 5934 5934 5936 5937 5940 5940 5938 5942
5848 5858 5863 5866 5871 5875 5880 5882 5879 5879 5882 5880 5890 5892 5894 5895 5896 5897 5901 5901 5904 5907 5908 5913 5916 5918 5920 5922 5923 5924 5927 5928 5930 5931 5934 5935 5936 5937 5937 5939 5942 5943 5944 5945
5846 5855 5859 5864 5866 5873 5878 5881 5875 5873 5876 5846 5889 5890 5890 5894 5895 5897 5897 5899 5902 5901 5911 5912 5914 5918 5919 5921 5923 5926 5927 5930 5931 5933 5934 5936 5938 5939 5940 5941 5943 5945 5947 5949
5845 5850 5856 5861 5866 5869 5875 5872 5872 5875 5875 5878 5882 5887 5889 5890 5892 5895 5896 5899 5904 5906 5907 5913 5913 5915 5917 5921 5924 5925 5927 5929 5933 5934 5935 5937 5939 5941 5943 5943 5945 5946 5949 5951
5842 5849 5852 5857 5859 5866 5869 5870 5870 5876 5877 5880 5879 5886 5888 5887 5888 5892 5896 5898 5900 5902 5904 5908 5909 5913 5915 5918 5922 5927 5928 5929 5932 5935 5936 5938 5941 5942 5944 5946 5947 5948 5949 5951
5839 5847 5846 5852 5858 5863 5864 5868 5875 5878 5878 5884 5886 5885 5883 5888 5890 5893 5897 5900 5899 5900 5904 5905 5909 5912 5912 5917 5918 5924 5929 5930 5931 5935 5937 5939 5941 5943 5945 5947 5949 5950 5951 5953
5839 5843 5844 5849 5853 5861 5861 5867 5876 5880 5883 5884 5887 5884 5881 5889 5895 5898 5898 5901 5902 5902 5903 5904 5908 5909 5912 5918 5918 5920 5925 5930 5931 5934 5938 5939 5941 5943 5945 5946 5948 5950 5953 5954
5841 5845 5843 5847 5853 5859 5863 5865 5874 5873 5870 5879 5882 5886 5880 5882 5890 5893 5893 5897 5900 5903 5903 5904 5908 5910 5910 5913 5916 5917 5923 5928 5930 5933 5936 5939 5941 5943 5945 5946 5948 5950 5952 5954
5834 5839 5843 5844 5849 5853 5859 5865 5872 5874 5875 5878 5881 5880 5877 5874 5872 5880 5885 5892 5899 5902 5902 5902 5905 5905 5907 5908 5909 5914 5918 5924 5928 5931 5934 5937 5939 5941 5944 5945 5947 5949 5950 5953
5826 5835 5842 5844 5844 5848 5855 5860 5862 5869 5876 5877 5876 5878 5877 5877 5869 5875 5876 5886 5893 5897 5901 5905 5902 5901 5899 5896 5891 5911 5915 5921 5924 5927 5931 5934 5937 5939 5941 5943 5945 5947 5949 5950
5828 5831 5836 5839 5843 5845 5851 5857 5861 5865 5870 5872 5874 5878 5869 5868 5872 5861 5862 5881 5887 5890 5895 5899 5901 5896 5901 5896 5892 5894 5906 5913 5923 5923 5926 5931 5933 5936 5939 5941 5943 5944 5946 5948
5823 5831 5837 5837 5839 5843 5847 5853 5858 5862 5869 5871 5876 5870 5866 5864 5867 5869 5873 5880 5886 5889 5890 5894 5894 5892 5895 5902 5902 5896 5899 5907 5915 5921 5922 5925 5929 5931 5934 5936 5939 5942 5943 5945
5821 5830 5825 5829 5830 5835 5840 5846 5852 5861 5865 5870 5874 5871 5867 5861 5864 5869 5872 5876 5880 5885 5887 5888 5888 5889 5895 5895 5900 5897 5890 5900 5911 5920 5920 5921 5925 5927 5929 5932 5934 5937 5940 5942
5818 5822 5823 5823 5827 5831 5833 5839 5846 5852 5858 5863 5857 5861 5860 5861 5862 5860 5866 5866 5871 5877 5881 5884 5883 5884 5889 5891 5888 5894 5896 5901 5906 5912 5899 5917 5918 5921 5924 5927 5929 5932 5935 5937
5815 5819 5817 5820 5824 5826 5830 5834 5839 5846 5851 5854 5855 5847 5852 5857 5856 5862 5822 5844 5857 5867 5873 5877 5879 5881 5883 5886 5888 5890 5892 5893 5897 5901 5908 5911 5913 5915 5917 5920 5923 5926 5928 5931
5809 5813 5816 5819 5822 5825 5829 5832 5834 5837 5842 5844 5842 5841 5846 5846 5842 5846 5838 5846 5858 5861 5865 5869 5873 5877 5879 5879 5881 5885 5887 5890 5892 5897 5902 5906 5908 5909 5911 5913 5916 5918 5921 5924
5804 5807 5810 5814 5816 5822 5824 5822 5824 5833 5832 5837 5838 5842 5840 5841 5841 5838 5843 5850 5854 5858 5863 5866 5866 5870 5873 5874 5878 5879 5882 5885 5888 5892 5895 5898 5899 5901 5902 5904 5907 5910 5913 5915
5802 5802 5806 5809 5813 5816 5818 5818 5821 5822 5827 5824 5839 5837 5841 5838 5839 5837 5833 5840 5848 5851 5856 5860 5862 5864 5865 5868 5871 5874 5877 5880 5883 5885 5888 5890 5891 5893 5894 5895 5899 5901 5902 5906
5798 5799 5802 5804 5806 5804 5806 5808 5812 5814 5816 5815 5826 5832 5829 5831 5824 5824 5828 5836 5841 5846 5847 5850 5854 5856 5860 5863 5865 5867 5869 5873 5876 5878 5880 5881 5884 5886 5887 5888 5890 5891 5892 5895
5794 5793 5795 5799 5801 5798 5797 5799 5803 5806 5810 5809 5814 5820 5822 5817 5812 5821 5823 5829 5832 5834 5838 5842 5845 5848 5851 5854 5856 5859 5863 5865 5866 5870 5872 5874 5875 5877 5878 5879 5879 5882 5883 5885
5789 5789 5790 5791 5792 5793 5788 5790 5794 5798 5801 5802 5807 5808 5810 5808 5812 5813 5816 5818 5821 5825 5828 5832 5836 5839 5843 5846 5848 5852 5855 5857 5859 5861 5864 5865 5867 5868 5870 5871 5871 5871 5873 5876
5781 5779 5779 5780 5781 5780 5782 5786 5788 5790 5793 5797 5801 5799 5800 5801 5802 5802 5804 5810 5813 5816 5819 5822 5826 5830 5833 5836 5839 5842 5844 5847 5849 5852 5855 5856 5859 5860 5862 5861 5862 5863 5863 5865
5770 5767 5767 5767 5771 5772 5777 5781 5780 5783 5786 5787 5790 5791 5794 5796 5796 5796 5797 5800 5803 5805 5809 5812 5816 5820 5823 5826 5828 5831 5834 5836 5838 5840 5844 5847 5849 5851 5853 5853 5855 5856 5855 5855
5763 5759 5758 5760 5760 5762 5766 5769 5760 5771 5778 5782 5783 5784 5787 5790 5788 5788 5790 5791 5793 5796 5799 5801 5805 5809 5812 5815 5818 5821 5824 5827 5829 5831 5833 5836 5838 5840 5841 5844 5845 5847 5847 5848
5759 5755 5752 5747 5751 5754 5756 5761 5762 5763 5769 5773 5776 5779 5780 5782 5782 5783 5784 5784 5785 5787 5790 5793 5795 5798 5801 5805 5807 5810 5812 5815 5818 5821 5822 5825 5827 5829 5829 5833 5833 5836 5838 5838
Wind_Speed
35 35 34 30 27 20 23 29 22 30 26 19 14 6 7 16 21 17 18 19 18 12 12 9 9 7 8 10 9 9 10 7 8 9 7 7 10 12 12 11 10 8 11 12
38 38 30 28 19 26 28 24 32 30 18 18 13 11 14 14 16 21 19 22 19 15 14 11 9 9 8 8 11 7 10 10 7 8 8 8 8 10 10 10 10 11 7 9
34 32 29 33 28 26 27 28 33 27 21 22 16 11 12 16 13 12 25 25 17 17 15 13 10 8 8 9 7 9 9 10 8 7 7 6 6 8 9 10 8 10 12 11
30 29 30 34 31 26 18 14 28 25 21 12 14 11 13 12 15 11 4 24 20 17 15 16 10 10 9 8 9 6 7 7 8 6 7 6 7 7 8 10 10 10 11 12
28 29 23 28 34 30 26 26 16 24 25 21 12 9 16 10 13 9 11 10 10 11 11 14 13 14 12 10 8 8 8 8 6 8 7 7 6 6 7 9 10 11 11 10
22 19 24 28 34 35 23 26 14 22 20 7 7 18 18 6 9 15 13 4 2 8 11 21 15 19 11 12 10 10 10 11 10 9 9 9 7 8 6 7 9 10 9 9
27 20 26 40 29 30 33 29 18 9 13 5 11 20 18 14 21 15 2 3 4 8 10 10 19 27 20 18 14 12 12 11 11 10 9 9 9 8 7 7 6 7 8 8
22 28 29 30 37 21 36 35 15 2 10 17 16 17 27 23 17 18 14 8 2 4 4 7 14 16 16 22 16 15 13 13 11 12 11 10 11 9 8 8 8 7 6 7
15 15 19 25 35 32 17 34 32 20 25 21 16 18 15 23 15 26 19 12 7 4 6 6 9 13 13 26 22 19 17 15 13 12 13 13 13 12 11 10 9 9 9 8
21 19 22 18 29 37 33 15 26 30 13 23 13 24 15 21 26 14 18 17 15 11 8 11 5 10 19 22 27 19 19 18 15 14 13 13 11 13 13 13 13 13 12 13
21 13 20 19 27 35 36 32 25 24 18 13 20 17 26 24 32 19 13 20 18 19 18 13 12 13 15 29 31 28 20 17 18 17 17 16 15 15 14 13 14 15 16 16
24 19 14 10 14 26 21 23 33 22 26 19 16 18 30 31 20 19 5 15 13 20 20 21 19 19 18 21 25 30 24 20 21 20 19 19 18 17 16 15 14 15 15 16
38 28 11 18 13 12 26 20 20 28 18 18 16 23 28 35 32 26 6 15 17 18 21 25 27 26 20 20 27 33 27 22 22 25 22 22 22 20 19 18 16 17 17 17
33 27 26 24 25 27 19 22 20 18 19 17 15 25 28 36 31 19 28 16 21 20 25 25 29 29 24 24 26 30 17 17 25 26 26 23 24 24 23 22 21 19 19 19
29 35 14 17 15 33 18 20 23 24 29 26 30 32 29 31 29 20 28 32 26 26 26 27 27 27 26 26 22 26 29 33 30 27 23 28 28 27 27 27 26 24 23 23
27 38 30 11 11 6 11 18 24 23 33 38 29 27 26 35 37 32 23 25 31 32 31 30 31 23 23 20 21 19 26 26 33 31 27 24 29 29 31 30 30 30 29 28
19 32 41 29 17 9 10 22 29 21 18 26 27 22 23 33 47 48 13 16 20 26 28 30 28 27 19 23 21 18 18 24 26 24 26 27 25 28 30 32 34 33 33 32
5 21 31 41 29 26 20 25 22 18 24 34 34 50 42 42 44 40 31 30 26 31 31 30 29 29 27 27 24 20 18 19 20 19 18 23 24 25 32 36 36 36 37 37
23 16 16 21 19 20 33 31 34 29 26 43 36 43 51 51 32 53 37 35 33 28 34 38 33 31 27 31 29 26 23 22 22 23 24 23 24 24 26 26 31 38 42 43
15 17 19 18 21 29 26 38 38 41 36 48 42 43 43 43 37 21 22 22 29 32 36 37 37 35 30 31 33 29 29 27 26 26 25 24 25 26 28 33 37 42 45 43
14 16 18 19 24 28 34 30 35 20 38 36 31 35 46 59 51 46 40 35 41 43 39 41 41 40 37 36 38 36 33 31 32 32 32 31 30 30 30 26 28 35 35 39
25 27 21 20 25 29 38 37 29 37 30 40 32 30 34 46 43 31 36 37 38 40 39 37 38 42 45 44 42 37 37 38 38 39 37 37 33 31 31 28 25 29 37 43
19 22 34 33 30 43 38 35 43 30 40 35 31 33 35 30 27 32 32 35 41 37 37 39 39 40 43 45 48 47 47 45 43 43 42 40 41 39 37 32 29 30 36 41
21 22 21 35 31 37 34 38 44 45 30 26 33 36 31 30 29 34 33 33 38 44 43 42 41 42 42 43 45 46 45 45 46 47 49 48 46 42 37 33 29 31 29 29
21 18 11 27 36 39 36 13 13 38 40 39 30 34 34 31 30 32 34 35 37 41 42 43 49 45 43 43 45 43 43 44 44 46 44 46 43 45 42 38 36 35 38 37
22 18 10 10 25 35 47 39 18 18 34 30 30 33 31 29 29 30 30 35 36 38 39 36 35 41 46 45 43 45 46 44 44 47 46 46 48 47 47 44 38 37 37 39
Wind_Direction
201 197 196 194 206 187 206 214 223 242 227 218 225 229 211 168 189 198 205 201 195 197 190 200 185 180 175 167 154 160 157 150 143 119 110 118 138 151 165 161 168 176 148 147
202 201 190 195 197 206 201 208 238 244 178 189 211 229 225 202 202 219 212 203 209 196 199 194 197 179 167 179 175 165 159 166 155 132 116 114 127 138 145 155 160 160 160 144
205 200 196 187 195 211 210 221 227 250 252 181 207 217 230 219 243 203 213 217 195 192 193 199 192 190 166 168 160 167 176 168 156 145 125 113 118 137 151 145 153 153 152 150
202 192 206 200 196 208 197 238 244 240 192 172 195 219 239 219 222 207 174 208 197 186 189 188 205 197 180 194 184 191 179 182 167 166 153 139 125 130 142 143 146 146 147 146
195 188 212 209 208 211 199 226 243 245 243 275 203 249 252 274 217 180 169 201 195 224 267 193 205 212 197 187 207 197 195 193 195 182 182 156 141 129 147 148 151 148 152 147
189 196 213 199 216 204 214 228 254 231 195 224 346 299 271 287 262 201 192 125 196 222 200 186 194 228 199 205 201 205 199 198 204 194 188 180 170 155 168 161 160 162 160 158
183 205 231 209 199 207 212 213 230 254 258 325 283 288 277 294 308 241 210 137 70 196 205 206 207 207 214 218 193 209 210 203 202 216 205 193 188 194 186 187 180 177 168 164
193 222 218 210 207 211 221 213 192 28 237 217 216 249 282 278 275 277 303 306 159 168 195 231 205 215 230 221 215 214 212 216 209 205 220 222 211 201 210 205 210 212 196 194
212 223 263 235 214 211 232 223 208 225 252 224 230 226 244 251 260 246 253 264 272 239 248 256 237 229 258 210 208 218 217 217 210 211 210 225 228 225 221 221 228 225 224 223
182 191 251 247 219 218 219 206 223 217 275 224 257 260 256 281 165 253 233 217 213 234 232 261 296 240 217 216 215 204 211 219 218 212 215 214 222 227 228 232 234 239 229 223
155 183 196 228 228 217 217 222 204 214 232 237 254 277 271 268 267 261 211 230 227 232 227 241 258 243 244 244 208 213 218 223 223 223 223 221 221 228 231 237 241 238 242 240
171 175 239 216 237 226 206 232 228 224 212 229 255 272 286 286 284 261 148 218 227 233 235 229 234 238 228 239 245 191 212 216 229 224 231 234 228 235 237 235 240 243 244 248
205 199 201 248 195 227 210 215 225 231 231 231 242 268 271 280 288 300 256 250 241 234 223 217 222 228 234 233 223 208 212 214 227 233 225 231 240 238 245 243 240 243 244 241
200 179 226 223 193 191 199 224 194 220 235 234 248 260 268 269 283 279 277 256 238 226 230 219 221 225 225 235 237 223 240 226 231 239 247 237 236 242 244 245 246 246 245 249
204 187 224 253 237 213 186 196 223 206 199 205 237 231 238 259 267 234 268 242 231 224 226 225 227 231 235 227 215 239 245 242 237 220 243 238 240 240 243 247 249 246 251 250
214 198 194 216 186 208 222 191 185 217 213 206 215 260 234 226 240 221 146 208 210 218 221 218 222 224 236 236 241 236 239 236 235 225 235 237 238 243 247 246 246 247 249 250
225 213 208 211 237 241 242 202 194 196 202 219 220 237 248 224 234 235 275 266 239 224 227 227 227 228 238 234 239 237 232 231 228 233 239 246 245 247 247 248 250 248 248 249
247 233 222 216 229 238 231 228 217 215 236 217 223 220 222 221 234 266 256 251 232 230 235 233 229 227 233 245 226 224 218 220 224 234 243 243 249 253 251 250 248 249 252 250
217 233 204 224 224 239 230 237 241 219 233 243 225 231 226 235 256 243 229 210 223 224 235 233 235 238 242 238 226 224 230 228 230 235 245 254 259 267 263 253 257 255 257 252
237 242 226 209 211 231 236 223 232 241 222 237 235 226 239 221 230 256 224 228 236 239 232 237 235 234 235 228 225 229 232 239 238 242 250 256 261 266 268 265 249 249 255 255
252 256 247 235 230 254 246 246 245 237 227 242 245 242 236 242 257 263 259 245 240 243 241 240 239 238 236 232 232 239 239 240 245 247 248 251 258 267 267 269 271 251 248 251
264 257 240 251 228 238 249 251 253 244 249 238 243 256 257 256 257 257 246 244 244 241 245 247 245 244 245 244 242 242 244 246 250 250 248 253 258 270 272 267 265 269 257 251
283 261 241 239 240 232 237 254 253 256 236 246 257 260 261 264 258 256 254 242 241 240 244 245 245 246 246 247 250 250 248 248 251 251 250 255 261 269 272 271 268 267 265 255
293 284 262 230 240 235 243 253 251 243 264 256 251 257 263 262 254 249 251 248 242 241 244 245 247 249 249 249 248 248 251 253 253 254 254 259 263 261 259 263 261 266 260 263
313 307 263 233 228 234 225 213 275 240 254 260 260 254 257 262 262 251 248 250 248 243 245 245 243 247 247 247 247 249 253 250 251 252 251 250 251 254 257 256 259 260 258 262
328 328 301 232 222 227 229 231 262 268 247 257 255 257 255 256 264 259 251 251 252 248 248 247 244 247 248 245 245 248 248 250 249 247 250 251 253 254 251 257 252 258 258 258